TimeCST,TemperatureF,Dew PointF,Humidity,Sea Level PressureIn,VisibilityMPH,Wind Direction,Wind SpeedMPH,Gust SpeedMPH,PrecipitationIn,Events,Conditions,WindDirDegrees,DateUTC
12:55 AM,51.8,50.0,94,30.22,10.0,NW,8.1,-,N/A,,Overcast,310,2012-11-12 06:55:00
1:15 AM,51.8,50.0,94,30.23,10.0,NW,6.9,-,N/A,,Overcast,320,2012-11-12 07:15:00
1:55 AM,50.0,46.4,87,30.25,10.0,NW,12.7,-,N/A,,Overcast,310,2012-11-12 07:55:00
2:15 AM,50.0,46.4,87,30.26,10.0,NW,8.1,-,N/A,,Overcast,320,2012-11-12 08:15:00
2:35 AM,50.0,46.4,87,30.26,10.0,NW,10.4,-,N/A,,Mostly Cloudy,310,2012-11-12 08:35:00
2:55 AM,48.2,44.6,87,30.27,10.0,NW,13.8,-,N/A,,Overcast,310,2012-11-12 08:55:00
3:15 AM,46.4,44.6,93,30.28,10.0,NW,11.5,17.3,N/A,,Overcast,310,2012-11-12 09:15:00
3:35 AM,44.6,41.0,87,30.29,10.0,NW,13.8,17.3,N/A,,Mostly Cloudy,310,2012-11-12 09:35:00
3:55 AM,44.6,41.0,87,30.29,10.0,NW,10.4,-,N/A,,Overcast,320,2012-11-12 09:55:00
4:15 AM,44.6,41.0,87,30.29,10.0,NNW,9.2,-,N/A,,Mostly Cloudy,330,2012-11-12 10:15:00
4:35 AM,44.6,41.0,87,30.31,10.0,NNW,8.1,-,N/A,,Mostly Cloudy,330,2012-11-12 10:35:00
4:55 AM,44.6,41.0,87,30.32,10.0,NW,6.9,-,N/A,,Clear,320,2012-11-12 10:55:00
5:15 AM,44.6,42.8,93,30.33,10.0,NW,5.8,-,N/A,,Scattered Clouds,320,2012-11-12 11:15:00
5:35 AM,42.8,39.2,87,30.34,10.0,NNW,3.5,-,N/A,,Scattered Clouds,340,2012-11-12 11:35:00
5:55 AM,42.8,41.0,93,30.35,10.0,NNW,6.9,-,N/A,,Scattered Clouds,330,2012-11-12 11:55:00
6:15 AM,42.8,39.2,87,30.37,10.0,NW,10.4,-,N/A,,Mostly Cloudy,320,2012-11-12 12:15:00
6:55 AM,41.0,35.6,81,30.40,10.0,NW,8.1,-,N/A,,Scattered Clouds,310,2012-11-12 12:55:00
7:15 AM,37.4,35.6,93,30.42,10.0,NW,6.9,-,N/A,,Scattered Clouds,320,2012-11-12 13:15:00
7:35 AM,37.4,35.6,93,30.43,10.0,NW,9.2,-,N/A,,Clear,310,2012-11-12 13:35:00
7:55 AM,39.2,33.8,81,30.45,10.0,NNW,10.4,-,N/A,,Clear,340,2012-11-12 13:55:00
8:15 AM,41.0,33.8,76,30.46,10.0,NNW,9.2,-,N/A,,Clear,340,2012-11-12 14:15:00
8:35 AM,42.8,35.6,76,30.47,10.0,NNW,11.5,16.1,N/A,,Clear,330,2012-11-12 14:35:00
8:55 AM,42.8,33.8,70,30.48,10.0,NNW,6.9,-,N/A,,Clear,340,2012-11-12 14:55:00
9:15 AM,44.6,35.6,71,30.48,10.0,North,6.9,-,N/A,,Clear,350,2012-11-12 15:15:00
9:35 AM,44.6,33.8,66,30.49,10.0,NNW,8.1,-,N/A,,Clear,340,2012-11-12 15:35:00
9:55 AM,44.6,32.0,61,30.48,10.0,North,9.2,-,N/A,,Clear,0,2012-11-12 15:55:00
10:15 AM,46.4,32.0,57,30.48,10.0,North,4.6,-,N/A,,Clear,0,2012-11-12 16:15:00
10:35 AM,50.0,33.8,54,30.48,10.0,NE,5.8,-,N/A,,Clear,40,2012-11-12 16:35:00
10:55 AM,50.0,32.0,50,30.47,10.0,NNE,8.1,-,N/A,,Clear,20,2012-11-12 16:55:00
11:15 AM,50.0,30.2,47,30.47,10.0,North,8.1,-,N/A,,Clear,0,2012-11-12 17:15:00
11:35 AM,51.8,30.2,44,30.46,10.0,North,5.8,-,N/A,,Clear,10,2012-11-12 17:35:00
11:55 AM,51.8,30.2,44,30.46,10.0,NE,5.8,-,0.01,,Clear,40,2012-11-12 17:55:00
12:15 PM,51.8,28.4,41,30.45,10.0,NNE,5.8,-,N/A,,Clear,30,2012-11-12 18:15:00
12:35 PM,53.6,28.4,38,30.44,10.0,North,4.6,-,N/A,,Clear,10,2012-11-12 18:35:00
12:55 PM,55.4,26.6,33,30.44,10.0,North,5.8,-,N/A,,Clear,0,2012-11-12 18:55:00
1:15 PM,55.4,28.4,36,30.44,10.0,NNW,10.4,-,N/A,,Clear,330,2012-11-12 19:15:00
1:35 PM,55.4,26.6,33,30.44,10.0,NE,5.8,-,N/A,,Clear,50,2012-11-12 19:35:00
1:55 PM,55.4,26.6,33,30.44,10.0,North,8.1,-,N/A,,Clear,10,2012-11-12 19:55:00
2:15 PM,55.4,23.0,29,30.44,10.0,North,8.1,-,N/A,,Clear,350,2012-11-12 20:15:00
2:35 PM,55.4,19.4,25,30.45,10.0,NE,9.2,-,N/A,,Clear,40,2012-11-12 20:35:00
2:55 PM,55.4,21.2,26,30.45,10.0,NE,8.1,-,N/A,,Clear,50,2012-11-12 20:55:00
3:15 PM,55.4,24.8,31,30.45,10.0,NNE,4.6,-,N/A,,Clear,20,2012-11-12 21:15:00
3:35 PM,55.4,24.8,31,30.45,10.0,NNE,4.6,-,N/A,,Clear,30,2012-11-12 21:35:00
3:55 PM,55.4,26.6,33,30.46,10.0,NNE,4.6,-,N/A,,Clear,20,2012-11-12 21:55:00
4:35 PM,51.8,28.4,41,30.46,10.0,NNE,3.5,-,N/A,,Clear,20,2012-11-12 22:35:00
4:55 PM,51.8,30.2,44,30.47,10.0,Calm,Calm,-,N/A,,Clear,0,2012-11-12 22:55:00
5:15 PM,50.0,30.2,47,30.47,10.0,Calm,Calm,-,N/A,,Clear,0,2012-11-12 23:15:00
5:35 PM,44.6,33.8,66,30.47,10.0,Calm,Calm,-,N/A,,Clear,0,2012-11-12 23:35:00
5:55 PM,44.6,37.4,76,30.47,10.0,North,3.5,-,N/A,,Clear,350,2012-11-12 23:55:00
6:15 PM,42.8,37.4,81,30.48,10.0,NNW,3.5,-,N/A,,Clear,330,2012-11-13 00:15:00
6:55 PM,41.0,35.6,81,30.48,10.0,Calm,Calm,-,N/A,,Clear,0,2012-11-13 00:55:00
7:15 PM,37.4,35.6,93,30.48,10.0,Calm,Calm,-,N/A,,Clear,0,2012-11-13 01:15:00
7:35 PM,37.4,33.8,87,30.48,10.0,Calm,Calm,-,N/A,,Clear,0,2012-11-13 01:35:00
7:55 PM,37.4,35.6,93,30.49,10.0,Calm,Calm,-,N/A,,Clear,0,2012-11-13 01:55:00
8:15 PM,37.4,33.8,87,30.49,10.0,Calm,Calm,-,N/A,,Clear,0,2012-11-13 02:15:00
8:35 PM,35.6,32.0,87,30.49,10.0,North,3.5,-,N/A,,Clear,350,2012-11-13 02:35:00
8:55 PM,35.6,33.8,93,30.49,10.0,Calm,Calm,-,N/A,,Clear,0,2012-11-13 02:55:00
9:15 PM,35.6,33.8,93,30.49,7.0,Calm,Calm,-,N/A,,Clear,0,2012-11-13 03:15:00
9:35 PM,35.6,33.8,93,30.50,7.0,Calm,Calm,-,N/A,,Clear,0,2012-11-13 03:35:00
9:55 PM,35.6,33.8,93,30.50,10.0,Calm,Calm,-,N/A,,Clear,0,2012-11-13 03:55:00
10:15 PM,35.6,33.8,93,30.50,7.0,Calm,Calm,-,N/A,,Clear,0,2012-11-13 04:15:00
10:35 PM,35.6,33.8,93,30.50,10.0,Calm,Calm,-,N/A,,Clear,0,2012-11-13 04:35:00
10:55 PM,35.6,33.8,93,30.50,7.0,Calm,Calm,-,N/A,,Clear,0,2012-11-13 04:55:00
11:15 PM,35.6,33.8,93,30.50,7.0,Calm,Calm,-,N/A,,Clear,0,2012-11-13 05:15:00
11:35 PM,35.6,33.8,93,30.50,7.0,Calm,Calm,-,N/A,,Clear,0,2012-11-13 05:35:00
11:55 PM,33.8,32.0,93,30.50,5.0,Calm,Calm,-,N/A,,Clear,0,2012-11-13 05:55:00